GW5283 Weather Reports


time (UTC)temp
C
wind
direction
speed
KPH
gust
KPH
rain 1hr
cm
rain 24hr
cm
rain mn
cm
humidity
%
barometer
mb
20260504110629 10 40 0.0 0.0 0.00 0.00 0.00 35 1030.8
20260504110125 10 36 0.0 0.0 0.00 0.00 0.00 35 1030.7
20260504100551 6 38 0.0 0.0 0.00 0.00 0.00 46 1031.1
20260504081944 7 41 0.0 0.0 0.00 0.00 0.00 44 1032.0
20260504081442 7 40 0.0 0.0 0.00 0.00 0.00 45 1031.7
20260504080937 7 40 0.0 0.0 0.00 0.00 0.00 48 1031.7
20260504080434 7 40 0.0 0.0 0.00 0.00 0.00 48 1032.0
20260504070402 7 39 0.0 0.0 0.00 0.00 0.00 51 1032.3
20260504050744 10 31 0.0 0.0 0.00 0.00 0.00 41 1033.2
20260504050241 10 30 0.0 0.0 0.00 0.00 0.00 40 1033.0
20260504045739 10 29 0.0 0.0 0.00 0.00 0.00 40 1033.2
20260504045238 10 34 0.0 0.0 0.00 0.00 0.00 40 1033.2
20260504044737 10 46 1.6 1.6 0.00 0.00 0.00 39 1033.2
20260504044234 11 28 0.0 0.0 0.00 0.00 0.00 39 1033.1
20260504043731 11 23 0.0 0.0 0.00 0.00 0.00 37 1033.2
20260504043227 11 23 0.0 0.0 0.00 0.00 0.00 35 1033.2
20260504042725 12 35 0.0 0.0 0.00 0.00 0.00 34 1033.3
20260504042221 12 30 0.0 0.0 0.00 0.00 0.00 33 1033.2
20260504041718 12 34 0.0 0.0 0.00 0.00 0.00 33 1033.5
20260504041214 12 30 0.0 1.6 0.00 0.00 0.00 33 1033.3
20260504040710 12 32 0.0 0.0 0.00 0.00 0.00 32 1033.2
20260504040208 12 26 1.6 3.2 0.00 0.00 0.00 33 1033.3
20260504035703 12 42 0.0 0.0 0.00 0.00 0.00 33 1033.2
20260504035201 12 14 0.0 0.0 0.00 0.00 0.00 33 1033.3
20260504034658 12 58 0.0 1.6 0.00 0.00 0.00 33 1033.2
20260504034155 12 38 0.0 0.0 0.00 0.00 0.00 33 1033.2
20260504033653 12 14 0.0 0.0 0.00 0.00 0.00 32 1033.3
20260504033150 13 31 0.0 0.0 0.00 0.00 0.00 32 1033.2
20260504032647 13 32 0.0 0.0 0.00 0.00 0.00 32 1033.2
20260504032144 13 206 3.2 3.2 0.00 0.00 0.00 32 1033.2
20260504031641 13 46 0.0 0.0 0.00 0.00 0.00 32 1033.3
20260504031137 13 34 0.0 0.0 0.00 0.00 0.00 32 1033.0
20260504030634 13 24 0.0 1.6 0.00 0.00 0.00 31 1033.1
20260504030131 13 88 0.0 1.6 0.00 0.00 0.00 32 1032.7
20260504025628 13 37 0.0 0.0 0.00 0.00 0.00 31 1032.8
20260504025124 13 40 1.6 3.2 0.00 0.00 0.00 30 1032.8
20260504024622 14 43 0.0 0.0 0.00 0.00 0.00 29 1033.0
20260504024118 14 171 3.2 4.8 0.00 0.00 0.00 29 1033.0
20260504023615 15 177 1.6 3.2 0.00 0.00 0.00 28 1032.7
20260504023111 15 59 0.0 0.0 0.00 0.00 0.00 27 1033.0
20260504022607 14 32 0.0 0.0 0.00 0.00 0.00 28 1033.0
20260504022103 14 40 0.0 0.0 0.00 0.00 0.00 28 1032.7
20260504021601 15 26 0.0 0.0 0.00 0.00 0.00 27 1032.8
20260504021058 15 36 0.0 0.0 0.00 0.00 0.00 26 1032.6
20260504020555 15 35 0.0 0.0 0.00 0.00 0.00 26 1032.7
20260504020051 15 24 0.0 0.0 0.00 0.00 0.00 25 1032.8
20260504015548 16 29 0.0 0.0 0.00 0.00 0.00 25 1032.6
20260504015043 16 42 1.6 3.2 0.00 0.00 0.00 24 1032.7
20260504014540 16 322 1.6 1.6 0.00 0.00 0.00 24 1032.6
20260504014037 16 39 0.0 0.0 0.00 0.00 0.00 22 1032.6
20260504013535 16 27 0.0 0.0 0.00 0.00 0.00 22 1032.6
20260504013032 16 31 0.0 1.6 0.00 0.00 0.00 23 1032.5
20260504012529 16 36 0.0 0.0 0.00 0.00 0.00 24 1032.3
20260504012027 16 28 0.0 0.0 0.00 0.00 0.00 24 1032.6
20260504011523 16 44 0.0 0.0 0.00 0.00 0.00 24 1032.5
20260504011019 16 35 0.0 0.0 0.00 0.00 0.00 24 1032.6
20260504010515 16 59 1.6 1.6 0.00 0.00 0.00 23 1032.7
20260504010011 17 24 0.0 0.0 0.00 0.00 0.00 23 1032.3
20260504005508 17 29 0.0 0.0 0.00 0.00 0.00 23 1032.3
20260504005006 17 87 1.6 1.6 0.00 0.00 0.00 23 1032.1
20260504004503 17 41 0.0 0.0 0.00 0.00 0.00 23 1032.2
20260504004000 17 35 3.2 4.8 0.00 0.00 0.00 22 1032.1
20260504003456 17 40 0.0 0.0 0.00 0.00 0.00 22 1032.1
20260504002953 17 14 3.2 3.2 0.00 0.00 0.00 21 1032.2
20260504002450 17 31 0.0 0.0 0.00 0.00 0.00 22 1032.1
20260504001948 17 37 0.0 0.0 0.00 0.00 0.00 21 1032.2
20260504001445 17 29 0.0 0.0 0.00 0.00 0.00 21 1032.3
20260504000942 18 27 0.0 0.0 0.00 0.00 0.00 23 1032.3
20260504000439 18 35 0.0 0.0 0.00 0.00 0.00 20 1032.5
20260503235936 18 57 0.0 1.6 0.00 0.00 0.00 20 1032.3
20260503235433 19 16 0.0 0.0 0.00 0.00 0.00 19 1032.2
20260503234931 18 19 1.6 1.6 0.00 0.00 0.00 19 1032.2
20260503234428 19 17 0.0 0.0 0.00 0.00 0.00 19 1032.1
20260503233926 20 15 0.0 1.6 0.00 0.00 0.00 19 1032.2
20260503233422 20 19 0.0 1.6 0.00 0.00 0.00 18 1032.2
20260503232919 20 26 0.0 0.0 0.00 0.00 0.00 20 1032.2
20260503232416 20 10 1.6 1.6 0.00 0.00 0.00 18 1032.3
20260503231914 20 28 0.0 0.0 0.00 0.00 0.00 20 1032.3
20260503231411 20 28 0.0 0.0 0.00 0.00 0.00 19 1032.2
20260503230907 20 56 0.0 0.0 0.00 0.00 0.00 18 1032.6
20260503230403 20 17 0.0 1.6 0.00 0.00 0.00 18 1032.2
20260503225901 21 3 3.2 3.2 0.00 0.00 0.00 17 1032.3
20260503225357 21 25 0.0 0.0 0.00 0.00 0.00 18 1032.3
20260503224853 21 1 1.6 1.6 0.00 0.00 0.00 17 1032.5
20260503224351 21 19 0.0 1.6 0.00 0.00 0.00 17 1032.6
20260503223849 20 46 0.0 0.0 0.00 0.00 0.00 22 1032.6
20260503223346 20 15 1.6 1.6 0.00 0.00 0.00 17 1032.6
20260503222841 20 7 3.2 4.8 0.00 0.00 0.00 17 1032.5
20260503222341 20 39 1.6 1.6 0.00 0.00 0.00 17 1032.8
20260503221838 20 23 0.0 0.0 0.00 0.00 0.00 20 1032.7
20260503221337 19 30 0.0 0.0 0.00 0.00 0.00 17 1032.8
20260503220832 20 17 1.6 1.6 0.00 0.00 0.00 18 1032.8
20260503220329 20 352 1.6 3.2 0.00 0.00 0.00 18 1033.1
20260503215826 19 16 0.0 0.0 0.00 0.00 0.00 18 1033.2
20260503215323 18 22 0.0 0.0 0.00 0.00 0.00 18 1033.2
20260503214821 18 7 0.0 1.6 0.00 0.00 0.00 17 1033.2
20260503214318 18 18 0.0 0.0 0.00 0.00 0.00 21 1033.5
20260503213815 18 45 3.2 4.8 0.00 0.00 0.00 19 1033.5
20260503213313 18 50 0.0 0.0 0.00 0.00 0.00 19 1033.5
20260503212809 19 117 4.8 6.4 0.00 0.00 0.00 18 1033.7
20260503212307 19 17 0.0 0.0 0.00 0.00 0.00 20 1033.8
20260503211805 18 358 0.0 1.6 0.00 0.00 0.00 18 1033.8
20260503211301 18 23 1.6 1.6 0.00 0.00 0.00 18 1034.0
20260503210801 18 80 1.6 1.6 0.00 0.00 0.00 18 1034.1
20260503210259 18 17 1.6 3.2 0.00 0.00 0.00 19 1034.2
20260503205754 18 12 0.0 1.6 0.00 0.00 0.00 20 1034.1
20260503205251 18 16 1.6 1.6 0.00 0.00 0.00 17 1034.3
20260503204747 18 13 0.0 0.0 0.00 0.00 0.00 17 1034.3
20260503204245 18 12 0.0 0.0 0.00 0.00 0.00 17 1034.3
20260503203742 18 5 0.0 1.6 0.00 0.00 0.00 18 1034.7
20260503203239 18 78 1.6 1.6 0.00 0.00 0.00 19 1034.8
20260503202736 18 32 0.0 0.0 0.00 0.00 0.00 16 1034.8
20260503202234 18 14 0.0 1.6 0.00 0.00 0.00 16 1034.8
20260503201732 18 25 0.0 0.0 0.00 0.00 0.00 16 1034.7
20260503201229 19 37 1.6 1.6 0.00 0.00 0.00 16 1035.0
20260503200725 20 308 1.6 3.2 0.00 0.00 0.00 17 1035.0
20260503200222 20 38 1.6 1.6 0.00 0.00 0.00 17 1035.0
20260503195719 20 59 1.6 3.2 0.00 0.00 0.00 16 1035.0
20260503195216 20 14 1.6 1.6 0.00 0.00 0.00 16 1035.1
20260503194713 20 325 1.6 3.2 0.00 0.00 0.00 21 1035.2
20260503194209 20 13 0.0 1.6 0.00 0.00 0.00 16 1035.5
20260503193705 20 23 3.2 4.8 0.00 0.00 0.00 17 1035.2
20260503193201 20 4 1.6 1.6 0.00 0.00 0.00 19 1035.5
20260503192657 19 76 1.6 3.2 0.00 0.00 0.00 18 1035.3
20260503192152 19 3 1.6 1.6 0.00 0.00 0.00 17 1035.5
20260503191649 20 64 1.6 1.6 0.00 0.00 0.00 17 1035.7
20260503191146 20 77 1.6 3.2 0.00 0.00 0.00 17 1035.8
20260503190643 20 144 6.4 9.7 0.00 0.00 0.00 17 1036.0
20260503190140 20 253 3.2 3.2 0.00 0.00 0.00 18 1035.7
20260503185637 20 171 1.6 3.2 0.00 0.00 0.00 19 1035.8
20260503185132 19 24 1.6 3.2 0.00 0.00 0.00 17 1036.1
20260503184627 18 90 3.2 6.4 0.00 0.00 0.00 18 1036.2
20260503184124 18 77 3.2 4.8 0.00 0.00 0.00 17 1036.2
20260503183620 19 118 3.2 4.8 0.00 0.00 0.00 18 1036.2
20260503183118 19 20 3.2 4.8 0.00 0.00 0.00 17 1036.4
20260503182616 20 16 3.2 4.8 0.00 0.00 0.00 19 1036.4
20260503182114 20 132 4.8 6.4 0.00 0.00 0.00 18 1036.7
20260503181610 20 133 0.0 1.6 0.00 0.00 0.00 18 1036.7
20260503181107 20 76 3.2 4.8 0.00 0.00 0.00 17 1036.8
20260503180604 19 345 3.2 4.8 0.00 0.00 0.00 19 1036.8
20260503175559 18 172 4.8 4.8 0.00 0.00 0.00 19 1036.9
20260503175056 18 130 1.6 3.2 0.00 0.00 0.00 22 1037.1
20260503174553 19 98 4.8 6.4 0.00 0.00 0.00 18 1037.4
20260503174049 18 14 0.0 1.6 0.00 0.00 0.00 20 1037.2
20260503173544 18 90 3.2 4.8 0.00 0.00 0.00 18 1037.4
20260503173041 18 38 3.2 4.8 0.00 0.00 0.00 19 1037.3
20260503172539 17 16 4.8 6.4 0.00 0.00 0.00 19 1037.6
20260503172036 17 52 4.8 6.4 0.00 0.00 0.00 20 1037.7
20260503171532 18 87 1.6 1.6 0.00 0.00 0.00 20 1037.8
20260503171030 18 61 6.4 6.4 0.00 0.00 0.00 18 1037.8
20260503170526 18 91 11.3 14.5 0.00 0.00 0.00 20 1037.9
20260503150918 15 72 4.8 9.7 0.00 0.00 0.00 26 1038.7
20260503150415 15 19 0.0 1.6 0.00 0.00 0.00 28 1038.6
20260503131308 10 40 0.0 0.0 0.00 0.00 0.00 36 1038.6
20260503130805 10 38 0.0 0.0 0.00 0.00 0.00 35 1038.6
20260503130303 10 37 0.0 0.0 0.00 0.00 0.00 36 1038.4